EW4964 Weather Reports


Display with metric or nautical units.
time (UTC)temp
F
wind
direction
speed
MPH
gust
MPH
rain 1hr
in
rain 24hr
in
rain mn
in
humidity
%
barometer
mb
20260902173007 64 45 1.0 2.0 0.00 0.00 0.00 29 1018.5
20260902171507 65 45 1.0 3.0 0.00 0.00 0.00 28 1018.7
20260902170007 67 45 2.0 3.0 0.00 0.00 0.00 27 1018.6
20260902164506 68 45 2.0 4.0 0.00 0.00 0.00 26 1018.6
20260902163007 71 42 2.0 7.0 0.00 0.00 0.00 25 1018.5
20260902161507 73 351 2.0 4.0 0.00 0.00 0.00 22 1018.6
20260902160009 73 317 2.0 4.0 0.00 0.00 0.00 22 1018.5
20260902154507 72 323 2.0 8.0 0.00 0.00 0.00 22 1018.5
20260902153007 71 261 4.0 7.0 0.00 0.00 0.00 22 1018.6
20260902151506 71 333 3.0 6.0 0.00 0.00 0.00 22 1018.8
20260902150006 69 271 2.0 7.0 0.00 0.00 0.00 25 1018.6
20260902143006 69 324 2.0 4.0 0.00 0.00 0.00 25 1019.0
20260902134506 69 351 2.0 6.0 0.00 0.00 0.00 25 1019.2
20260902133006 69 315 4.0 10.0 0.00 0.00 0.00 24 1019.1
20260902131506 70 290 3.0 7.0 0.00 0.00 0.00 24 1019.0
20260902123007 72 246 4.0 11.0 0.00 0.00 0.00 22 1019.4
20260902121506 71 281 3.0 7.0 0.00 0.00 0.00 22 1019.7
20260902120006 70 317 4.0 7.0 0.00 0.00 0.00 24 1019.6
20260902114506 71 15 4.0 10.0 0.00 0.00 0.00 24 1019.8
20260902113006 70 290 4.0 9.0 0.00 0.00 0.00 24 1019.9
20260902111506 69 274 4.0 8.0 0.00 0.00 0.00 24 1020.1
20260902110008 68 248 5.0 11.0 0.00 0.00 0.00 24 1020.0
20260902104506 69 244 4.0 7.0 0.00 0.00 0.00 24 1020.0
20260902101505 69 330 4.0 10.0 0.00 0.00 0.00 25 1020.0
20260902100006 69 279 5.0 10.0 0.00 0.00 0.00 24 1020.1
20260902094506 68 334 3.0 6.0 0.00 0.00 0.00 26 1020.1
20260902093006 67 302 4.0 11.0 0.00 0.00 0.00 25 1020.1
20260902091505 66 246 5.0 11.0 0.00 0.00 0.00 26 1020.2
20260902090006 65 269 4.0 9.0 0.00 0.00 0.00 27 1020.2
20260902084505 65 255 3.0 8.0 0.00 0.00 0.00 27 1020.3
20260902083006 64 256 5.0 11.0 0.00 0.00 0.00 27 1020.4
20260902081506 64 305 4.0 8.0 0.00 0.00 0.00 29 1020.4
20260902080005 62 333 3.0 6.0 0.00 0.00 0.00 31 1020.2
20260902074505 62 241 3.0 5.0 0.00 0.00 0.00 31 1020.2
20260902073005 62 353 3.0 8.0 0.00 0.00 0.00 31 1020.3
20260902071506 62 265 2.0 5.0 0.00 0.00 0.00 32 1020.1
20260902070007 60 298 2.0 6.0 0.00 0.00 0.00 36 1020.0
20260902064505 59 10 2.0 4.0 0.00 0.00 0.00 37 1020.1
20260902063005 58 334 2.0 4.0 0.00 0.00 0.00 38 1019.9
20260902060006 56 1 1.0 2.0 0.00 0.00 0.00 40 1020.0
20260902054506 56 315 0.0 2.0 0.00 0.00 0.00 41 1019.8
20260902053005 55 323 0.0 1.0 0.00 0.00 0.00 41 1019.8
20260902051505 54 311 0.0 2.0 0.00 0.00 0.00 41 1019.6
20260902050008 54 328 1.0 3.0 0.00 0.00 0.00 42 1019.7
20260902044505 53 306 0.0 2.0 0.00 0.00 0.00 42 1019.8
20260902043005 52 311 1.0 2.0 0.00 0.00 0.00 44 1019.6
20260902040005 52 315 0.0 1.0 0.00 0.00 0.00 44 1019.5
20260902033005 52 306 0.0 2.0 0.00 0.00 0.00 43 1019.6
20260902031504 52 288 0.0 2.0 0.00 0.00 0.00 43 1019.5
20260902030005 53 332 0.0 2.0 0.00 0.00 0.00 41 1019.4
20260902024504 53 333 1.0 2.0 0.00 0.00 0.00 41 1019.5
20260902023005 52 313 0.0 2.0 0.00 0.00 0.00 43 1019.5
20260902021504 53 0 0.0 0.0 0.00 0.00 0.00 42 1019.4
20260902014505 53 270 0.0 1.0 0.00 0.00 0.00 39 1019.6
20260902013004 54 270 0.0 1.0 0.00 0.00 0.00 39 1019.6
20260902011504 54 270 1.0 2.0 0.00 0.00 0.00 39 1019.6
20260902010005 54 270 0.0 2.0 0.00 0.00 0.00 38 1019.5
20260902004505 54 270 0.0 1.0 0.00 0.00 0.00 38 1019.5
20260902003008 55 270 0.0 2.0 0.00 0.00 0.00 37 1019.8
20260902001508 55 270 0.0 2.0 0.00 0.00 0.00 37 1019.6
20260902000007 55 270 0.0 2.0 0.00 0.00 0.00 37 1019.5
20260901231507 55 270 0.0 2.0 0.00 0.00 0.00 37 1019.7
20260901230008 55 314 0.0 1.0 0.00 0.00 0.00 37 1019.9
20260901224508 56 276 0.0 2.0 0.00 0.00 0.00 37 1019.9
20260901223008 56 270 0.0 2.0 0.00 0.00 0.00 37 1019.9
20260901221507 56 272 0.0 2.0 0.00 0.00 0.00 37 1020.0
20260901214508 55 311 0.0 2.0 0.00 0.00 0.00 38 1020.1
20260901211507 55 0 0.0 0.0 0.00 0.00 0.00 38 1020.0
20260901210007 55 0 0.0 0.0 0.00 0.00 0.00 38 1020.1
20260901204508 55 1 0.0 1.0 0.00 0.00 0.00 37 1019.8
20260901201508 56 0 0.0 0.0 0.00 0.00 0.00 36 1020.1
20260901200008 56 0 0.0 0.0 0.00 0.00 0.00 36 1019.8
20260901194507 56 0 0.0 0.0 0.00 0.00 0.00 36 1019.7
20260901193007 57 0 0.0 0.0 0.00 0.00 0.00 35 1019.5
20260901191507 57 1 0.0 1.0 0.00 0.00 0.00 35 1019.8
20260901190007 58 334 0.0 2.0 0.00 0.00 0.00 34 1019.5
20260901184507 58 270 0.0 1.0 0.00 0.00 0.00 34 1019.5
20260901183008 58 270 0.0 1.0 0.00 0.00 0.00 33 1019.4
20260901181507 59 270 0.0 1.0 0.00 0.00 0.00 33 1019.4
20260901180007 60 270 0.0 1.0 0.00 0.00 0.00 32 1019.2
20260901174507 61 270 0.0 1.0 0.00 0.00 0.00 32 1019.1